Location: Newark
(46.3833°N, 12.2833°E)
Time: 10:31:15
(UTC+00:00)

Falcon 9 debris - Visible Passes

Search period start: 16 July 2019 00:00
Search period end: 26 July 2019 00:00
Orbit: 431 x 440 km, 53.0° (Epoch: 15 July)

Date Brightness Start Highest point End Pass type
(mag) Time Alt. Az. Time Alt. Az. Time Alt. Az.
16 Jul 5.8 00:15:58 11° ESE 00:15:58 11° ESE 00:16:09 10° ESE visible
16 Jul 3.0 01:49:15 27° SW 01:51:01 82° SSE 01:54:28 10° ENE visible
17 Jul 3.2 01:08:23 52° S 01:08:47 57° SE 01:12:11 10° ENE visible
17 Jul 4.5 02:42:45 10° W 02:45:58 36° NNW 02:49:12 10° NE visible
18 Jul 4.3 00:27:29 32° ESE 00:27:29 32° ESE 00:29:50 10° ENE visible
18 Jul 4.1 02:00:45 13° W 02:03:38 43° NNW 02:06:57 10° NE visible
18 Jul 5.5 23:46:32 15° E 23:46:32 15° E 23:47:24 10° ENE visible
19 Jul 3.7 01:19:49 29° W 01:21:19 55° NNW 01:24:43 10° NE visible
19 Jul 5.1 02:55:52 10° WNW 02:58:51 26° N 03:01:50 10° NE visible
20 Jul 3.1 00:38:50 71° WNW 00:39:01 74° NNW 00:42:28 10° ENE visible
20 Jul 5.0 02:13:24 10° WNW 02:16:28 28° N 02:19:30 10° NE visible
20 Jul 4.1 23:57:49 41° ENE 23:57:49 41° ENE 00:00:12 10° ENE visible
21 Jul 4.8 01:31:04 11° WNW 01:34:04 31° NNW 01:37:12 10° NE visible
21 Jul 5.3 23:16:45 19° ENE 23:16:45 19° ENE 23:17:54 10° ENE visible
22 Jul 4.6 00:50:01 22° WNW 00:51:41 36° NNW 00:54:55 10° NE visible
22 Jul 5.3 02:26:23 10° NW 02:29:21 26° N 02:32:21 10° ENE visible
23 Jul 4.1 00:08:54 41° NW 00:09:20 44° NNW 00:12:40 10° NE visible
23 Jul 5.3 01:43:58 10° WNW 01:46:57 26° N 01:49:55 10° ENE visible
23 Jul 4.2 23:27:43 45° NNE 23:27:43 45° NNE 23:30:25 10° NE visible
24 Jul 5.3 01:01:32 10° WNW 01:04:32 27° N 01:07:31 10° NE visible
24 Jul 4.9 02:39:00 10° NW 02:42:12 35° NNE 02:45:24 10° E visible
24 Jul 4.9 22:46:27 27° NE 22:46:27 27° NE 22:48:09 10° ENE visible
25 Jul 5.1 00:19:41 14° WNW 00:22:07 28° N 00:25:10 10° NE visible
25 Jul 5.1 01:56:41 10° NW 01:59:49 30° NNE 02:02:55 10° ENE visible
25 Jul 5.4 22:04:59 17° ENE 22:04:59 17° ENE 22:05:52 10° ENE visible
25 Jul 4.9 23:38:13 22° WNW 23:39:43 31° NNW 23:42:51 10° NE visible
